This is the latest recevied weather packets stored in our database for station/object EB2BAG-11. If no packets are shown the sender has not sent any weather packets the latest 10 day(s).
| Time | Temp. | Humidity | Pressure | Rain* | Wind** | Luminosity | Snow |
|---|---|---|---|---|---|---|---|
| 1777805752 | 21.11° C | 58% | 1013.4 hPa | - | - | - | - |
| 1777804553 | 21.67° C | 57% | 1013.5 hPa | - | - | - | - |
| 1777803352 | 21.67° C | 57% | 1013.6 hPa | - | - | - | - |
| 1777802152 | 21.11° C | 60% | 1013.7 hPa | - | - | - | - |
| 1777800952 | 21.67° C | 58% | 1013.7 hPa | - | - | - | - |
| 1777799752 | 20.56° C | 62% | 1013.8 hPa | - | - | - | - |
| 1777798552 | 19.44° C | 67% | 1013.9 hPa | - | - | - | - |
| 1777797352 | 18.89° C | 74% | 1013.9 hPa | - | - | - | - |
| 1777796152 | 18.33° C | 79% | 1014.1 hPa | - | - | - | - |
| 1777794952 | 17.78° C | 82% | 1014.3 hPa | - | - | - | - |
| 1777793752 | 16.67° C | 84% | 1014.3 hPa | - | - | - | - |
| 1777792551 | 16.67° C | 83% | 1014.3 hPa | - | - | - | - |
| 1777791351 | 16.11° C | 85% | 1014.5 hPa | - | - | - | - |
| 1777790151 | 16.11° C | 82% | 1014.2 hPa | - | - | - | - |
| 1777788951 | 15° C | 82% | 1014.2 hPa | - | - | - | - |
| 1777787751 | 15.56° C | 82% | 1014.2 hPa | - | - | - | - |
| 1777786551 | 15° C | 83% | 1013.8 hPa | - | - | - | - |
| 1777785351 | 14.44° C | 83% | 1013.9 hPa | - | - | - | - |
| 1777784151 | 15° C | 83% | 1013.8 hPa | - | - | - | - |
| 1777782951 | 15° C | 83% | 1014 hPa | - | - | - | - |
| 1777781751 | 15.56° C | 80% | 1014 hPa | - | - | - | - |
| 1777780551 | 15.56° C | 81% | 1013.8 hPa | - | - | - | - |
| 1777779350 | 15.56° C | 81% | 1013.8 hPa | - | - | - | - |
| 1777778150 | 15.56° C | 81% | 1014 hPa | - | - | - | - |
| 1777776950 | 15° C | 84% | 1014.2 hPa | - | - | - | - |
* Rain since midnight (hover to see other rain measurements)
** Current wind speed in m/s (hover to see current wind gust speed)